Location: Cheyres
(46.8153°N, 6.7877°E)
Time: 23:19:22
(UTC+00:00)

ERS-1 Rocket - Pass Details

Date: 11 May 2021
Orbit: 753 x 757 km, 98.4° (Epoch: 23 June)

Event Time Altitude Azimuth Distance (km) Brightness Sun altitude
Exits shadow 20:30:21 20° 130° (SE) 1,692 4.1 -13.6°
Maximum altitude 20:33:27 44° 68° (ENE) 1,041 3.5 -14.0°
Drops below altitude 10° 20:38:13 10° 358° (N) 2,294 6.2 -14.5°
Sets 20:40:37 0° 352° (N) 3,224 7.2 -14.8°
